| time (UTC) | temp C | wind direction | speed KPH | gust KPH | rain 1hr cm | rain 24hr cm | rain mn cm | humidity % | barometer mb |
| 20260505205045 | 25 | 163 | 3.2 | 0.0 | 0.00 | 0.00 | 0.00 | 18 | 1008.3 |
| 20260505203537 | 26 | 155 | 3.2 | 0.0 | 0.00 | 0.00 | 0.00 | 15 | 1008.3 |
| 20260505202032 | 25 | 153 | 4.8 | 0.0 | 0.00 | 0.00 | 0.00 | 18 | 1008.5 |
| 20260505200542 | 25 | 261 | 4.8 | 0.0 | 0.00 | 0.00 | 0.00 | 18 | 1008.4 |
| 20260505195058 | 25 | 133 | 3.2 | 0.0 | 0.00 | 0.00 | 0.00 | 19 | 1008.4 |
| 20260505193522 | 25 | 193 | 3.2 | 0.0 | 0.00 | 0.00 | 0.00 | 21 | 1008.6 |
| 20260505192038 | 23 | 202 | 4.8 | 0.0 | 0.00 | 0.00 | 0.00 | 23 | 1008.7 |
| 20260505190532 | 23 | 200 | 3.2 | 0.0 | 0.00 | 0.00 | 0.00 | 23 | 1008.8 |
| 20260505185027 | 23 | 229 | 4.8 | 0.0 | 0.00 | 0.00 | 0.00 | 26 | 1009.0 |
| 20260505183541 | 22 | 103 | 4.8 | 0.0 | 0.00 | 0.00 | 0.00 | 25 | 1009.1 |
| 20260505182036 | 22 | 192 | 4.8 | 0.0 | 0.00 | 0.00 | 0.00 | 24 | 1009.0 |
| 20260505180545 | 23 | 142 | 1.6 | 0.0 | 0.00 | 0.00 | 0.00 | 23 | 1008.9 |
| 20260505175033 | 22 | 304 | 0.0 | 0.0 | 0.00 | 0.00 | 0.00 | 22 | 1009.1 |
| 20260505173529 | 21 | 55 | 1.6 | 0.0 | 0.00 | 0.00 | 0.00 | 25 | 1009.3 |
| 20260505172024 | 21 | 192 | 1.6 | 0.0 | 0.00 | 0.00 | 0.00 | 25 | 1009.3 |
| 20260505170521 | 20 | 185 | 1.6 | 0.0 | 0.00 | 0.00 | 0.00 | 28 | 1009.1 |
| 20260505165036 | 20 | 121 | 0.0 | 0.0 | 0.00 | 0.00 | 0.00 | 28 | 1009.3 |
| 20260505163522 | 18 | 122 | 0.0 | 0.0 | 0.00 | 0.00 | 0.00 | 32 | 1009.2 |
| 20260505162035 | 17 | 161 | 1.6 | 0.0 | 0.00 | 0.00 | 0.00 | 34 | 1009.3 |
| 20260505160530 | 16 | 111 | 1.6 | 0.0 | 0.00 | 0.00 | 0.00 | 34 | 1009.4 |
| 20260505152030 | 15 | 53 | 0.0 | 0.0 | 0.00 | 0.00 | 0.00 | 42 | 1008.7 |
| 20260505150543 | 13 | 54 | 0.0 | 0.0 | 0.00 | 0.00 | 0.00 | 45 | 1008.5 |
| 20260505140534 | 11 | 57 | 0.0 | 0.0 | 0.00 | 0.00 | 0.00 | 58 | 1008.9 |
| 20260505125039 | 11 | 82 | 0.0 | 0.0 | 0.00 | 0.00 | 0.00 | 55 | 1008.1 |
| 20260505123525 | 11 | 82 | 0.0 | 0.0 | 0.00 | 0.00 | 0.00 | 53 | 1008.1 |
| 20260505122021 | 11 | 80 | 0.0 | 0.0 | 0.00 | 0.00 | 0.00 | 52 | 1008.1 |
| 20260505120537 | 11 | 80 | 0.0 | 0.0 | 0.00 | 0.00 | 0.00 | 51 | 1007.7 |
| 20260505115023 | 12 | 48 | 0.0 | 0.0 | 0.00 | 0.00 | 0.00 | 51 | 1007.6 |
| 20260505113540 | 12 | 50 | 0.0 | 0.0 | 0.00 | 0.00 | 0.00 | 51 | 1007.7 |
| 20260505112030 | 12 | 44 | 0.0 | 0.0 | 0.00 | 0.00 | 0.00 | 50 | 1007.5 |
| 20260505110536 | 12 | 48 | 0.0 | 0.0 | 0.00 | 0.00 | 0.00 | 50 | 1007.2 |
| 20260505102043 | 13 | 37 | 0.0 | 0.0 | 0.00 | 0.00 | 0.00 | 46 | 1007.1 |
| 20260505100530 | 13 | 46 | 0.0 | 0.0 | 0.00 | 0.00 | 0.00 | 46 | 1007.7 |
| 20260505095048 | 13 | 42 | 1.6 | 0.0 | 0.00 | 0.00 | 0.00 | 43 | 1007.4 |
| 20260505093523 | 13 | 54 | 1.6 | 0.0 | 0.00 | 0.00 | 0.00 | 43 | 1007.4 |
| 20260505092019 | 13 | 84 | 1.6 | 0.0 | 0.00 | 0.00 | 0.00 | 44 | 1007.4 |
| 20260505090532 | 13 | 63 | 0.0 | 0.0 | 0.00 | 0.00 | 0.00 | 44 | 1007.3 |
| 20260505085021 | 13 | 67 | 0.0 | 0.0 | 0.00 | 0.00 | 0.00 | 43 | 1007.3 |
| 20260505083537 | 14 | 63 | 1.6 | 0.0 | 0.00 | 0.00 | 0.00 | 43 | 1007.1 |
| 20260505082032 | 14 | 46 | 0.0 | 0.0 | 0.00 | 0.00 | 0.00 | 43 | 1007.1 |
| 20260505080527 | 15 | 46 | 0.0 | 0.0 | 0.00 | 0.00 | 0.00 | 41 | 1007.1 |
| 20260505075038 | 15 | 70 | 1.6 | 0.0 | 0.00 | 0.00 | 0.00 | 41 | 1007.0 |
| 20260505073534 | 15 | 17 | 0.0 | 0.0 | 0.00 | 0.00 | 0.00 | 42 | 1006.7 |
| 20260505072051 | 15 | 18 | 0.0 | 0.0 | 0.00 | 0.00 | 0.00 | 40 | 1006.7 |
| 20260505070539 | 15 | 338 | 0.0 | 0.0 | 0.00 | 0.00 | 0.00 | 41 | 1006.7 |
| 20260505065054 | 15 | 31 | 0.0 | 0.0 | 0.00 | 0.00 | 0.00 | 40 | 1006.5 |
| 20260505063520 | 15 | 32 | 0.0 | 0.0 | 0.00 | 0.00 | 0.00 | 40 | 1006.4 |
| 20260505062035 | 16 | 49 | 0.0 | 0.0 | 0.00 | 0.00 | 0.00 | 39 | 1006.2 |
| 20260505060529 | 16 | 55 | 0.0 | 0.0 | 0.00 | 0.00 | 0.00 | 39 | 1005.6 |
| 20260505055023 | 16 | 54 | 0.0 | 0.0 | 0.00 | 0.00 | 0.00 | 37 | 1005.5 |
| 20260505053538 | 16 | 54 | 0.0 | 0.0 | 0.00 | 0.00 | 0.00 | 36 | 1005.4 |
| 20260505052049 | 17 | 50 | 0.0 | 0.0 | 0.00 | 0.00 | 0.00 | 34 | 1005.4 |
| 20260505050544 | 17 | 56 | 0.0 | 0.0 | 0.00 | 0.00 | 0.00 | 32 | 1005.8 |
| 20260505040521 | 18 | 71 | 0.0 | 0.0 | 0.00 | 0.00 | 0.00 | 30 | 1004.8 |
| 20260505035035 | 18 | 262 | 0.0 | 0.0 | 0.00 | 0.00 | 0.00 | 28 | 1004.6 |
| 20260505033523 | 19 | 153 | 0.0 | 0.0 | 0.00 | 0.00 | 0.00 | 28 | 1005.0 |
| 20260505032036 | 20 | 100 | 1.6 | 0.0 | 0.00 | 0.00 | 0.00 | 27 | 1005.0 |
| 20260505030529 | 20 | 213 | 1.6 | 0.0 | 0.00 | 0.00 | 0.00 | 26 | 1004.6 |
| 20260505025042 | 21 | 294 | 1.6 | 0.0 | 0.00 | 0.00 | 0.00 | 25 | 1004.4 |
| 20260505023528 | 21 | 360 | 3.2 | 0.0 | 0.00 | 0.00 | 0.00 | 22 | 1004.1 |
| 20260505022020 | 22 | 12 | 4.8 | 0.0 | 0.00 | 0.00 | 0.00 | 20 | 1004.0 |
| 20260505020536 | 23 | 218 | 3.2 | 0.0 | 0.00 | 0.00 | 0.00 | 19 | 1004.0 |
| 20260505015034 | 23 | 335 | 3.2 | 0.0 | 0.00 | 0.00 | 0.00 | 16 | 1004.0 |
| 20260505013529 | 23 | 278 | 4.8 | 0.0 | 0.00 | 0.00 | 0.00 | 15 | 1004.0 |
| 20260505012043 | 25 | 242 | 3.2 | 0.0 | 0.00 | 0.00 | 0.00 | 13 | 1004.0 |
| 20260505010539 | 25 | 13 | 4.8 | 0.0 | 0.00 | 0.00 | 0.00 | 11 | 1004.1 |
| 20260505005030 | 26 | 62 | 4.8 | 0.0 | 0.00 | 0.00 | 0.00 | 10 | 1004.0 |
| 20260505003526 | 26 | 238 | 3.2 | 0.0 | 0.00 | 0.00 | 0.00 | 10 | 1003.9 |
| 20260505002023 | 26 | 320 | 6.4 | 0.0 | 0.00 | 0.00 | 0.00 | 9 | 1003.8 |
| 20260505000534 | 27 | 289 | 4.8 | 0.0 | 0.00 | 0.00 | 0.00 | 9 | 1003.7 |
| 20260504235021 | 27 | 328 | 4.8 | 0.0 | 0.00 | 0.00 | 0.00 | 8 | 1003.5 |
| 20260504233533 | 27 | 226 | 6.4 | 0.0 | 0.00 | 0.00 | 0.00 | 8 | 1003.7 |
| 20260504232048 | 27 | 9 | 6.4 | 0.0 | 0.00 | 0.00 | 0.00 | 8 | 1003.5 |
| 20260504230536 | 27 | 71 | 6.4 | 0.0 | 0.00 | 0.00 | 0.00 | 6 | 1003.6 |
| 20260504225029 | 28 | 98 | 6.4 | 0.0 | 0.00 | 0.00 | 0.00 | 5 | 1004.4 |
| 20260504223546 | 30 | 40 | 3.2 | 0.0 | 0.00 | 0.00 | 0.00 | 5 | 1004.3 |
| 20260504222030 | 30 | 59 | 8.0 | 0.0 | 0.00 | 0.00 | 0.00 | 4 | 1004.5 |
| 20260504220521 | 30 | 51 | 4.8 | 0.0 | 0.00 | 0.00 | 0.00 | 4 | 1004.4 |
| 20260504215055 | 30 | 360 | 3.2 | 0.0 | 0.00 | 0.00 | 0.00 | 4 | 1004.6 |
| 20260504213528 | 30 | 78 | 3.2 | 0.0 | 0.00 | 0.00 | 0.00 | 4 | 1004.8 |
| 20260504212042 | 30 | 78 | 1.6 | 0.0 | 0.00 | 0.00 | 0.00 | 4 | 1004.8 |
| 20260504210530 | 30 | 142 | 3.2 | 0.0 | 0.00 | 0.00 | 0.00 | 4 | 1004.8 |